[[{"header":{"parameterUnit":"m.s-1","parameterCategory":1,"la1":30.2991,"la2":30.254,"lo1":-89.0895,"lo2":-89.0444,"dy":0.0017,"dx":0.0017,"nx":28,"ny":28,"refTime":"2023-08-16T21:00:00:Z","depth":0,"parameterNumber":2,"parameterNumberName":"U-component_of_WINDS"},"data":[0,0,0,0,0,0,0,0,0,0,0,0,0,0,0,0,0,0,0,0,0,0,0,0,0,0,0,0,0,0,0,0,0,0,0,0,0,0,0,0,0,0,0,0,0,0,0,0,0,0,0,0,0,0,0,0,0,0,4.0375,4.0377,0,4.052,4.0521,4.0523,4.048,4.0477,4.0474,4.0471,4.0619,4.0626,4.0633,0,0,0,0,0,0,0,0,0,0,0,0,0,4.0061,4.0067,4.0375,4.0377,4.0379,4.0519,4.0521,4.0523,4.048,4.0476,4.0473,4.0469,4.0617,4.0625,4.0633,0,0,0,0,0,0,0,0,0,0,0,0,0,4.0201,4.0069,4.0375,4.0374,4.0376,4.0519,4.0521,4.0524,4.0481,4.0476,4.0472,4.0468,4.0614,4.0624,4.0634,4.0787,0,0,4.0665,4.067,0,0,0,0,0,0,0,0,4.0193,4.0213,4.0373,4.0375,4.0376,4.0477,4.0465,4.0612,4.0482,4.0441,4.0471,4.0465,4.0576,4.0589,4.0626,4.0794,4.0801,4.0666,4.0672,4.0677,4.068,0,0,0,0,0,0,0,4.0183,4.0206,4.0432,4.0375,4.0377,4.0366,4.0381,4.0493,4.0532,4.0444,4.0441,4.0459,4.0576,4.0616,4.0629,4.0803,4.0666,4.0675,4.0681,4.0685,4.1102,4.1107,0,0,0,0,0,0,4.0173,4.0198,4.0428,4.0437,4.0272,4.0376,4.0392,4.0449,4.0531,4.0539,4.0463,4.0456,4.0601,4.0617,4.0634,4.0817,4.0677,4.0686,4.0692,4.1097,4.1103,4.1109,0,0,0,0,0,0,4.0166,4.0193,4.0422,4.0317,4.0345,4.0386,4.045,4.0454,4.0495,4.0545,4.0551,4.0497,4.0598,4.062,4.0749,4.0821,4.0691,4.07,4.1091,4.1099,4.1106,4.1185,0,0,0,0,0,0,4.0157,4.0191,4.025,4.0318,4.0351,4.0535,4.0455,4.0461,4.0512,4.0505,4.0578,4.0586,4.0596,4.0734,4.0759,4.0833,4.0708,4.1085,4.1095,4.1104,4.1176,4.1194,4.121,0,0,0,0,0,4.0146,4.0267,4.0253,4.0281,4.0425,4.0539,4.0558,4.0567,4.0518,4.0577,4.0609,4.0584,4.081,4.0748,4.0776,4.0854,4.1081,4.1092,4.1103,4.1169,4.1191,4.1209,0,0,0,0,0,0,4.0207,4.0276,4.0262,4.0409,4.0468,4.0532,4.0607,4.059,4.0665,4.0656,4.0664,4.0681,4.0813,4.0847,4.0776,4.1005,4.0938,4.0955,4.0978,4.1,4.1016,4.1005,4.0716,0,0,0,0,0,4.0238,4.0325,4.038,4.0505,4.0535,4.0566,4.0616,4.0618,4.068,4.0705,4.0746,4.0808,4.0892,4.0948,4.1029,4.1181,4.1195,4.1248,4.1265,4.1279,4.1293,4.1374,4.1398,4.1146,4.1146,4.1145,0,0,4.0302,4.035,4.0405,4.0518,4.0564,4.0654,4.0588,4.0685,4.0751,4.072,4.0844,4.0877,4.0946,4.1086,4.1151,4.1118,4.1366,4.1293,4.1303,4.1311,4.1388,4.1412,4.1433,4.1153,4.1152,4.1151,0,0,4.0464,4.051,4.0617,4.0665,4.0736,4.0755,4.0781,4.0847,4.0867,4.0992,4.0969,4.1048,4.1194,4.1244,4.1288,4.1467,4.1446,4.1493,4.1581,4.166,4.168,4.1697,4.1759,4.1782,4.1508,4.1508,4.1508,0,4.0534,4.0668,4.0675,4.0774,4.0824,4.0799,4.0907,4.0953,4.1047,4.1082,4.1044,4.1226,4.1271,4.1422,4.1465,4.1503,4.1532,4.1485,4.1676,4.1694,4.1711,4.177,4.1793,4.1513,4.1513,4.1512,4.1512,0,4.075,4.0843,4.0922,4.1012,4.1071,4.1174,4.1196,4.1255,4.1251,4.1274,4.14,4.1453,4.1543,4.158,4.1578,4.173,4.1708,4.1674,4.1606,4.174,4.1795,4.1818,4.1521,4.1519,4.1517,4.1516,0,0,4.0955,4.1047,4.1075,4.1115,4.1191,4.1262,4.1364,4.1452,4.1501,4.1567,4.1651,4.1775,4.1743,4.1793,4.1796,4.1866,4.2002,4.1823,4.1824,4.1853,4.2171,4.2195,4.2222,4.1988,4.1993,4.1996,4.2165,0,4.1122,4.1301,4.1309,4.1471,4.1556,4.1533,4.1621,4.1677,4.1701,4.1777,4.1803,4.189,4.1842,4.1872,4.194,4.1971,4.2066,4.1959,4.2066,4.207,4.2048,4.2251,4.2278,4.2434,4.2187,4.2191,4.2193,0,4.1341,4.1412,4.1582,4.1644,4.168,4.1759,4.1839,4.1912,4.1974,4.1986,4.2042,4.2035,4.2138,4.2068,4.2209,4.2137,4.2181,4.2203,4.2209,4.2219,4.2139,4.2265,4.2484,4.2507,4.2228,4.2225,4.2223,0,4.1471,4.161,4.1729,4.1764,4.1839,4.1895,4.1929,4.1987,4.2038,4.2108,4.2141,4.2223,4.2267,4.233,4.2345,4.2293,4.2486,4.2417,4.2499,4.2498,4.254,4.2537,4.2768,4.2571,4.2571,4.257,4.257,0,4.1656,4.1761,4.1788,4.1861,4.1977,4.1986,4.21,4.213,4.2182,4.226,4.2246,4.2319,4.2335,4.2411,4.2424,4.2538,4.2559,4.2571,4.2573,4.2572,4.257,4.26,4.2589,4.2576,4.2575,4.2574,4.2573,0,4.1821,4.1844,4.1971,4.2032,4.2049,4.2132,4.2184,4.2253,4.2275,4.2374,4.2398,4.2433,4.2522,4.2543,4.265,4.2658,4.2793,4.2785,4.2772,4.2771,4.285,4.2842,4.3108,4.3142,4.2924,4.2926,4.2928,0,4.1937,4.2017,4.2085,4.2136,4.2172,4.2255,4.2307,4.2318,4.2373,4.2449,4.2509,4.2596,4.2667,4.2811,4.2845,4.2926,4.2919,4.3007,4.2932,4.2927,4.2919,4.2913,4.292,4.3021,4.3023,4.3025,4.3027,0,4.214,4.2146,4.2222,4.2301,4.2363,4.2426,4.2486,4.2528,4.2548,4.261,4.27,4.2755,4.2863,4.2949,4.3031,4.3065,4.305,4.305,4.3073,4.3072,4.306,4.3066,4.2809,4.3044,4.3042,4.3041,4.304,4.304,4.2283,4.2352,4.241,4.2494,4.254,4.2596,4.2664,4.2693,4.2769,4.2857,4.2859,4.2958,4.3016,4.3123,4.3163,4.324,4.3213,4.3246,4.3255,4.3262,4.3268,4.3049,4.3255,4.3254,4.3254,4.3254,4.3253,0,4.2483,4.2519,4.2596,4.268,4.2745,4.2724,4.2789,4.2845,4.2932,4.2987,4.3057,4.316,4.3243,4.3284,4.3367,4.342,4.3415,4.3441,4.3437,4.3445,4.3289,4.326,4.3444,4.3444,4.3444,4.3444,4.3444,4.3444,4.2596,4.271,4.2724,4.286,4.2896,4.2991,4.303,4.3081,4.3125,4.3241,4.331,4.3335,4.3385,4.3471,4.3546,4.3556,4.3586,4.3616,4.3622,4.3475,4.3456,4.3437,4.341,4.3623,4.3623,4.3771,4.3773,4.3774]},{"header":{"parameterUnit":"m.s-1","parameterCategory":1,"la1":30.2991,"la2":30.254,"lo1":-89.0895,"lo2":-89.0444,"dy":0.0017,"dx":0.0017,"nx":28,"ny":28,"refTime":"2023-08-16T21:00:00:Z","depth":0,"parameterNumber":3,"parameterNumberName":"V-component_of_WINDS"},"data":[0,0,0,0,0,0,0,0,0,0,0,0,0,0,0,0,0,0,0,0,0,0,0,0,0,0,0,0,0,0,0,0,0,0,0,0,0,0,0,0,0,0,0,0,0,0,0,0,0,0,0,0,0,0,0,0,0,0,-0.1999,-0.1999,0,-0.2022,-0.2022,-0.2023,-0.204,-0.2041,-0.2041,-0.2041,-0.2065,-0.2066,-0.2066,0,0,0,0,0,0,0,0,0,0,0,0,0,-0.197,-0.197,-0.1999,-0.1999,-0.1999,-0.2022,-0.2023,-0.2023,-0.204,-0.2041,-0.2041,-0.2041,-0.2065,-0.2066,-0.2066,0,0,0,0,0,0,0,0,0,0,0,0,0,-0.1987,-0.197,-0.1999,-0.2011,-0.2012,-0.2022,-0.2023,-0.2023,-0.204,-0.2041,-0.2041,-0.2041,-0.2065,-0.2066,-0.2066,-0.2066,0,0,-0.2069,-0.2069,0,0,0,0,0,0,0,0,-0.1986,-0.1988,-0.2009,-0.201,-0.2011,-0.2029,-0.2021,-0.2037,-0.204,-0.203,-0.2041,-0.2041,-0.2053,-0.2055,-0.2059,-0.2067,-0.2069,-0.2069,-0.2069,-0.207,-0.207,0,0,0,0,0,0,0,-0.1984,-0.1987,-0.2008,-0.2009,-0.2011,-0.2015,-0.2018,-0.2024,-0.204,-0.2031,-0.2032,-0.2034,-0.2054,-0.2058,-0.2059,-0.2069,-0.2069,-0.2069,-0.207,-0.207,-0.208,-0.2079,0,0,0,0,0,0,-0.1981,-0.1986,-0.2007,-0.2009,-0.1999,-0.2016,-0.2019,-0.2023,-0.204,-0.2042,-0.2034,-0.2035,-0.2056,-0.2058,-0.206,-0.2061,-0.207,-0.207,-0.2071,-0.208,-0.2079,-0.2079,0,0,0,0,0,0,-0.1981,-0.1983,-0.2006,-0.1998,-0.2001,-0.2016,-0.2021,-0.2023,-0.2027,-0.2042,-0.2045,-0.2036,-0.2057,-0.2059,-0.2065,-0.2063,-0.2071,-0.2071,-0.208,-0.208,-0.2079,-0.2064,0,0,0,0,0,0,-0.198,-0.1983,-0.1982,-0.1997,-0.2001,-0.201,-0.202,-0.2024,-0.2029,-0.203,-0.2044,-0.2047,-0.2057,-0.2064,-0.2066,-0.2064,-0.2072,-0.208,-0.208,-0.2079,-0.2064,-0.2063,-0.2062,0,0,0,0,0,-0.1978,-0.1977,-0.1982,-0.1985,-0.2001,-0.201,-0.2012,-0.2024,-0.2028,-0.2028,-0.2038,-0.2047,-0.2063,-0.2064,-0.2066,-0.2065,-0.208,-0.208,-0.2079,-0.2065,-0.2063,-0.2062,0,0,0,0,0,0,-0.1961,-0.1979,-0.1985,-0.1989,-0.1998,-0.2013,-0.2013,-0.2021,-0.2029,-0.203,-0.2044,-0.2047,-0.2052,-0.2059,-0.206,-0.2066,-0.2073,-0.2073,-0.2061,-0.2059,-0.2058,-0.2056,-0.2073,0,0,0,0,0,-0.1958,-0.1963,-0.1979,-0.198,-0.1984,-0.1998,-0.2002,-0.201,-0.202,-0.2024,-0.2035,-0.2044,-0.2051,-0.2056,-0.2063,-0.2066,-0.2069,-0.2066,-0.2064,-0.2063,-0.2063,-0.2065,-0.2064,-0.2078,-0.2078,-0.2078,0,0,-0.1951,-0.1962,-0.1964,-0.1977,-0.1985,-0.199,-0.2001,-0.2006,-0.2011,-0.2025,-0.2031,-0.2039,-0.2051,-0.2055,-0.2057,-0.2061,-0.206,-0.2063,-0.2061,-0.2062,-0.2065,-0.2063,-0.2062,-0.2077,-0.2077,-0.2078,0,0,-0.1941,-0.195,-0.1952,-0.196,-0.1972,-0.1981,-0.1981,-0.1996,-0.2002,-0.2008,-0.2019,-0.2024,-0.2036,-0.2044,-0.205,-0.2044,-0.2052,-0.2046,-0.2038,-0.204,-0.2039,-0.2038,-0.2036,-0.2035,-0.2046,-0.2046,-0.2046,0,-0.1931,-0.194,-0.1952,-0.1957,-0.1962,-0.1976,-0.1978,-0.1986,-0.1999,-0.2003,-0.2007,-0.2023,-0.2032,-0.2038,-0.2036,-0.2041,-0.2042,-0.2044,-0.2038,-0.2037,-0.2037,-0.2035,-0.2034,-0.2045,-0.2045,-0.2045,-0.2045,0,-0.1927,-0.1932,-0.1933,-0.1946,-0.1951,-0.1955,-0.1968,-0.1973,-0.1981,-0.1989,-0.1996,-0.2007,-0.2017,-0.2019,-0.2027,-0.2027,-0.2029,-0.2035,-0.2042,-0.2034,-0.2033,-0.2032,-0.2044,-0.2044,-0.2044,-0.2044,0,0,-0.1906,-0.1926,-0.1926,-0.1932,-0.1947,-0.1952,-0.1956,-0.1966,-0.197,-0.1979,-0.1983,-0.1993,-0.2,-0.2006,-0.2015,-0.2017,-0.2011,-0.2023,-0.2024,-0.202,-0.2012,-0.2007,-0.2006,-0.2017,-0.2017,-0.2017,-0.2011,0,-0.1898,-0.1907,-0.1918,-0.1923,-0.1929,-0.1942,-0.1946,-0.1956,-0.1964,-0.197,-0.198,-0.1987,-0.1995,-0.1999,-0.2001,-0.2011,-0.201,-0.2012,-0.2021,-0.2021,-0.2018,-0.2005,-0.2,-0.1994,-0.2011,-0.2011,-0.2011,0,-0.189,-0.1899,-0.1904,-0.1918,-0.1921,-0.1924,-0.1935,-0.1941,-0.1952,-0.1958,-0.1965,-0.1975,-0.1981,-0.1987,-0.1996,-0.1997,-0.2002,-0.2007,-0.2007,-0.2008,-0.2015,-0.2006,-0.1993,-0.1992,-0.201,-0.201,-0.201,0,-0.1875,-0.1888,-0.1892,-0.1897,-0.1914,-0.1916,-0.1924,-0.1935,-0.1941,-0.195,-0.1953,-0.1963,-0.1968,-0.1976,-0.1988,-0.1992,-0.1995,-0.2003,-0.2001,-0.2,-0.2001,-0.2,-0.1987,-0.2004,-0.2004,-0.2004,-0.2004,0,-0.1865,-0.1867,-0.1886,-0.1889,-0.1892,-0.1906,-0.1909,-0.1918,-0.1928,-0.1933,-0.1945,-0.195,-0.1966,-0.1972,-0.1982,-0.1988,-0.199,-0.1995,-0.1998,-0.1994,-0.1993,-0.1997,-0.1998,-0.2004,-0.2004,-0.2004,-0.2004,0,-0.1848,-0.186,-0.1866,-0.1882,-0.1886,-0.1888,-0.1902,-0.1905,-0.1915,-0.1921,-0.1923,-0.1939,-0.1947,-0.196,-0.1972,-0.1979,-0.1983,-0.1987,-0.1979,-0.198,-0.1978,-0.1978,-0.1967,-0.1966,-0.1983,-0.1982,-0.1982,0,-0.184,-0.1843,-0.1859,-0.1863,-0.187,-0.1876,-0.1882,-0.1896,-0.1901,-0.1915,-0.1917,-0.1926,-0.1934,-0.1947,-0.196,-0.1969,-0.1974,-0.1969,-0.1975,-0.1972,-0.1974,-0.1973,-0.1974,-0.1968,-0.1968,-0.1967,-0.1967,0,-0.1826,-0.1832,-0.184,-0.1849,-0.1856,-0.1864,-0.1873,-0.1876,-0.1892,-0.1898,-0.1906,-0.1913,-0.1926,-0.1935,-0.1946,-0.1954,-0.1963,-0.1965,-0.1965,-0.1961,-0.1956,-0.1959,-0.1975,-0.1965,-0.1966,-0.1966,-0.1966,-0.1966,-0.1814,-0.1816,-0.1828,-0.1836,-0.1845,-0.1853,-0.1857,-0.1867,-0.1875,-0.1886,-0.1894,-0.1903,-0.1915,-0.1931,-0.1938,-0.1945,-0.1949,-0.1949,-0.1949,-0.1949,-0.1948,-0.1956,-0.1948,-0.1948,-0.1948,-0.1948,-0.1948,0,-0.18,-0.1808,-0.1815,-0.1828,-0.1834,-0.1842,-0.1853,-0.1858,-0.1865,-0.1875,-0.1883,-0.1894,-0.1903,-0.1916,-0.1927,-0.193,-0.1934,-0.1932,-0.1932,-0.1934,-0.1944,-0.1942,-0.1928,-0.1928,-0.1928,-0.1928,-0.1928,-0.1928,-0.1793,-0.1799,-0.1806,-0.1816,-0.1825,-0.1833,-0.1838,-0.1846,-0.1854,-0.1865,-0.1873,-0.1882,-0.1893,-0.1905,-0.1914,-0.1917,-0.1921,-0.1917,-0.1922,-0.1931,-0.1933,-0.1935,-0.1934,-0.1918,-0.1918,-0.1911,-0.1911,-0.1911]}]]